IBADAL6 Weather Reports


Display with metric or nautical units.
time (UTC)temp
F
wind
direction
speed
MPH
gust
MPH
rain 1hr
in
rain 24hr
in
rain mn
in
humidity
%
barometer
mb
20260510004553 58 287 0.0 4.0 0.00 0.54 0.00 86 1012.9
20260510003058 58 307 3.0 5.0 0.00 0.54 0.00 87 1013.1
20260510001551 58 278 0.0 2.0 0.00 0.54 0.00 87 1013.1
20260510000048 58 284 0.0 6.0 0.00 0.54 0.00 87 1013.5
20260509234601 58 281 1.0 4.0 0.00 0.54 0.00 87 1013.6
20260509233051 59 285 0.0 6.0 0.00 0.54 0.00 87 1013.7
20260509231601 59 294 4.0 10.0 0.00 0.54 0.00 87 1013.7
20260509230040 59 292 2.0 7.0 0.00 0.54 0.00 87 1013.7
20260509224538 59 297 2.0 5.0 0.00 0.54 0.00 87 1013.6
20260509223038 59 304 2.0 5.0 0.00 0.54 0.00 86 1013.7
20260509221535 60 319 1.0 4.0 0.00 0.54 0.00 86 1013.8
20260509220034 60 311 2.0 4.0 0.00 0.54 0.00 86 1013.8
20260509214529 60 330 1.0 3.0 0.00 0.54 0.54 87 1013.7
20260509213029 60 351 0.0 3.0 0.00 0.54 0.54 87 1013.6
20260509211528 60 316 0.0 3.0 0.00 0.54 0.54 87 1013.7
20260509210030 59 264 0.0 0.0 0.00 0.54 0.54 87 1013.7
20260509204530 59 236 0.0 0.0 0.00 0.54 0.54 88 1013.5
20260509203034 59 236 0.0 0.0 0.00 0.54 0.54 89 1013.3
20260509201525 59 236 0.0 0.0 0.00 0.54 0.54 89 1012.9
20260509200025 59 223 0.0 0.0 0.00 0.54 0.54 90 1012.9
20260509194524 60 223 0.0 0.0 0.00 0.54 0.54 90 1012.7
20260509193025 59 223 0.0 0.0 0.00 0.54 0.54 90 1012.5
20260509191524 59 223 0.0 4.0 0.00 0.54 0.54 90 1012.4
20260509190025 59 228 0.0 3.0 0.01 0.54 0.54 90 1012.1
20260509184529 59 228 0.0 2.0 0.01 0.54 0.54 90 1011.7
20260509183029 59 226 1.0 3.0 0.01 0.54 0.54 90 1011.4
20260509181520 59 295 0.0 2.0 0.01 0.54 0.54 90 1011.3
20260509180021 58 332 0.0 4.0 0.01 0.53 0.53 90 1011.0
20260509174617 58 311 0.0 1.0 0.02 0.53 0.53 90 1010.9
20260509173025 58 22 0.0 7.0 0.06 0.53 0.53 90 1011.0
20260509171525 58 32 4.0 9.0 0.13 0.53 0.53 90 1010.8
20260509170015 58 46 5.0 14.0 0.20 0.52 0.52 90 1010.8
20260509164513 58 346 6.0 11.0 0.24 0.50 0.50 90 1011.9
20260509163019 58 127 0.0 4.0 0.24 0.46 0.46 89 1012.7
20260509161517 58 145 1.0 5.0 0.18 0.39 0.39 89 1013.2
20260509160010 58 134 0.0 1.0 0.12 0.31 0.31 87 1013.7
20260509154507 59 139 4.0 10.0 0.07 0.25 0.25 84 1014.0
20260509153015 59 141 4.0 10.0 0.11 0.23 0.23 85 1013.2
20260509151503 60 134 8.0 18.0 0.13 0.20 0.20 85 1012.7
20260509150001 61 53 6.0 15.0 0.13 0.20 0.20 88 1010.1
20260509144603 61 295 9.0 19.0 0.16 0.18 0.18 87 1010.3
20260509143105 62 67 9.0 19.0 0.09 0.12 0.12 85 1011.2
20260509141553 62 109 10.0 17.0 0.06 0.08 0.08 85 1012.6
20260509140058 63 96 6.0 11.0 0.04 0.06 0.06 84 1013.4
20260509134548 64 109 3.0 11.0 0.00 0.02 0.02 82 1013.7
20260509133058 64 73 6.0 13.0 0.00 0.02 0.02 80 1013.5
20260509131547 64 72 1.0 8.0 0.00 0.02 0.02 81 1012.9
20260509130053 64 87 5.0 14.0 0.00 0.02 0.02 82 1012.0
20260509124553 64 72 6.0 13.0 0.00 0.02 0.02 80 1012.1
20260509123043 64 134 5.0 14.0 0.00 0.02 0.02 81 1012.3
20260509121551 64 141 7.0 13.0 0.00 0.02 0.02 80 1012.7
20260509120038 64 128 6.0 12.0 0.00 0.02 0.02 80 1013.4
20260509114551 64 124 6.0 12.0 0.00 0.02 0.02 81 1014.1
20260509111534 64 68 6.0 13.0 0.00 0.02 0.02 83 1014.7
20260509110033 65 131 7.0 14.0 0.00 0.02 0.02 81 1014.3
20260509104534 65 99 7.0 14.0 0.00 0.02 0.02 80 1014.3
20260509103030 65 44 5.0 13.0 0.00 0.02 0.02 80 1014.5
20260509101530 65 120 6.0 18.0 0.00 0.02 0.02 82 1014.6
20260509100029 65 109 8.0 16.0 0.00 0.02 0.02 80 1014.2
20260509094531 65 80 7.0 15.0 0.00 0.02 0.02 81 1014.2
20260509093027 65 63 6.0 12.0 0.00 0.02 0.02 81 1013.9
20260509091526 65 129 4.0 14.0 0.00 0.02 0.02 81 1014.1
20260509090044 65 92 4.0 13.0 0.00 0.02 0.02 81 1013.7
20260509084523 65 94 2.0 9.0 0.00 0.02 0.02 83 1013.6
20260509083039 64 73 7.0 15.0 0.00 0.02 0.02 83 1013.6
20260509081526 64 117 8.0 16.0 0.00 0.02 0.02 84 1013.6
20260509080018 64 124 5.0 9.0 0.00 0.02 0.02 83 1013.6
20260509074528 64 127 3.0 10.0 0.01 0.02 0.02 84 1013.7
20260509073018 64 82 5.0 11.0 0.01 0.02 0.02 84 1013.7
20260509071513 63 148 4.0 10.0 0.01 0.02 0.02 85 1013.9
20260509070011 63 97 5.0 11.0 0.00 0.02 0.02 84 1014.2
20260509064509 63 333 3.0 10.0 0.00 0.02 0.02 84 1014.1
20260509063009 63 235 4.0 8.0 0.00 0.02 0.02 85 1014.1
20260509061508 62 321 3.0 11.0 0.00 0.02 0.02 86 1014.2
20260509060009 63 30 4.0 7.0 0.00 0.02 0.02 85 1014.3
20260509054508 62 44 5.0 8.0 0.00 0.02 0.02 85 1014.2
20260509053010 63 43 3.0 6.0 0.00 0.02 0.02 84 1014.0
20260509051507 62 46 3.0 6.0 0.00 0.02 0.02 84 1014.1
20260509050010 63 68 1.0 5.0 0.00 0.02 0.02 84 1014.3
20260509044502 63 92 1.0 4.0 0.01 0.02 0.02 84 1014.2
20260509043003 63 69 0.0 6.0 0.01 0.02 0.02 84 1014.3
20260509034605 63 19 2.0 5.0 0.00 0.01 0.01 83 1014.4
20260509033109 62 42 2.0 5.0 0.00 0.01 0.01 83 1014.4
20260509031556 62 25 1.0 5.0 0.00 0.01 0.01 83 1014.5
20260509030056 62 335 1.0 5.0 0.00 0.01 0.01 84 1014.6
20260509024603 62 29 1.0 5.0 0.00 0.01 0.01 85 1014.5
20260509023053 61 213 0.0 2.0 0.00 0.01 0.01 85 1014.6
20260509021554 61 213 0.0 0.0 0.00 0.01 0.01 85 1014.7
20260509020051 60 212 0.0 1.0 0.00 0.01 0.01 85 1014.8
20260509014549 60 212 0.0 7.0 0.00 0.01 0.01 83 1015.0
20260509013050 61 214 0.0 2.0 0.01 0.01 0.01 84 1015.2
20260509011545 62 290 2.0 3.0 0.01 0.01 0.01 82 1015.1